{"data":{"norad_id":66598,"epoch":"2026-05-24T22:54:42.380352Z","epoch_age_seconds":82969,"freshness":"FRESH","line1":"1 66598U 25270L   26144.95465718  .00020591  00000+0  75602-3 0  9991","line2":"2 66598  43.0043 345.1306 0001689 269.7157  90.3501 15.27565093 29229","mean_motion":15.27565093,"eccentricity":0.0001689,"inclination_deg":43.0043,"raan_deg":345.1306,"arg_perigee_deg":269.7157,"mean_anomaly_deg":90.3501,"bstar":0.00075602,"rev_number":2922,"period_min":94.267668631519,"perigee_km":481.93487145256,"apogee_km":484.25259519427,"semimajor_km":6861.2307333234,"source":"CELESTRAK","updated_at":"2026-05-25T13:38:21.289070Z"}}